Location: Bavegemberg
(50.9500°N, 3.8833°E)
Time: 05:04:05
(UTC+00:00)

ADEOS II - Pass Details

Date: 23 May 2024
Orbit: 796 x 798 km, 98.7° (Epoch: 19 June)

Event Time Altitude Azimuth Distance (km) Brightness Sun altitude
Rises 01:12:16 0° 23° (NNE) 3,313 7.2 -15.7°
Reaches altitude 10° 01:14:57 10° 35° (NE) 2,378 5.8 -15.5°
Maximum altitude 01:19:25 28° 93° (E) 1,474 3.7 -15.2°
Drops below altitude 10° 01:23:51 10° 152° (SSE) 2,363 4.2 -14.9°
Enters shadow 01:24:19 - 154° (SSE) 2,520 4.3 -14.9°
